Regional Weather Roundup
Issued by NWS

Home | Current Version | Previous Version | Text Only | Print | Product List | Glossary On
Versions: 1 2 3 4 5 6 7 8 9 10 11 12 13 14 15 16 17 18 19 20 21 22 23 24 25 26 27 28 29 30 31 32 33 34 35 36 37 38 39 40 41 42 43 44 45 46 47 48 49 50
000
ASUS43 KIND 050409
RWRIN

WEATHER ROUNDUP FOR INDIANA
NATIONAL WEATHER SERVICE INDIANAPOLIS IN
1100 PM EST WED MAR 04 2015

NOTE: "FAIR" INDICATES FEW OR NO CLOUDS BELOW 12,000 FEET WITH NO
SIGNIFICANT WEATHER AND/OR OBSTRUCTIONS TO VISIBILITY.

* - STATION DOES NOT REPORT WEATHER SUCH AS PRECIPITATION OR FOG.

+ - STATION NOT QUALITY CONTROLLED BY THE NATIONAL WEATHER SERVICE.
    USE DATA WITH CAUTION...ESPECIALLY DEWPOINT AND RELATIVE
    HUMIDITY OBSERVATIONS.

INZ001>003-010>013-019-020-050500-
NORTHWEST INDIANA

CITY           SKY/WX    TMP DP  RH WIND       PRES   REMARKS
GARY /AIRPORT/ PTCLDY    19   0  44 W9        30.34R WCI   7
KNOX *+          N/A     19  -6  32 NW7       30.29R WCI  10
LA PORTE +     CLOUDY    20   5  52 NW6       30.30R WCI  12
MICHIGAN CITY+ MOCLDY    19   1  45 NW7       30.31R WCI  10
MONTICELLO +   CLOUDY    17  10  73 NW14      30.29R WCI   3
RENSSELAER +   CLOUDY    18   9  68 NW10G17   30.30R WCI   6
VALPARAISO     MOCLDY    16   4  59 W12       30.30S WCI   3

$$

LMZ046-743>745-050500-
SOUTHERN LAKE MICHIGAN

STATION/POSITION TIME  TEMP WIND        PRES
                       AIR  DIR/SP/G
                 (UTC) (F)  (DEG/KT/KT) (MB)
MICHIGAN CITY    0400   17  270/ 10/ 12   N/A

$$

INZ004-005-014>016-021>024-050500-
NORTH CENTRAL INDIANA

CITY           SKY/WX    TMP DP  RH WIND       PRES   REMARKS
GOSHEN         CLOUDY    18   6  59 NW8       30.26R WCI   8
LOGANSPORT +   CLOUDY    19   5  53 N7        30.28S WCI  10
PERU/GRISSOM   CLOUDY    19   6  55 N9        30.26R WCI   8
ROCHESTER +    CLOUDY    23   7  50 NW10      30.27S WCI  12
SOUTH BEND     CLOUDY    19   5  54 NW8       30.28R WCI   9
WARSAW +       CLOUDY    19   9  63 NW7       30.27R WCI  10

$$

INZ006>009-017-018-025>027-050500-
NORTHEAST INDIANA

CITY           SKY/WX    TMP DP  RH WIND       PRES   REMARKS
ANGOLA *+      CLEAR     16   5  62 NW8       30.22R WCI   5
AUBURN +       CLOUDY    19   5  53 NW8       30.25R WCI   9
FORT WAYNE     CLOUDY    19   6  57 NW8       30.27R WCI   9
HUNTINGTON +   CLOUDY    19   2  48 N6        30.27R WCI  10

$$

INZ028-029-035-036-043>045-051>053-050500-
WEST CENTRAL INDIANA

CITY           SKY/WX    TMP DP  RH WIND       PRES   REMARKS
CRAWFORDSVL +  CLOUDY    15   3  58 NW12G17   30.29R WCI   2
GREENCASTLE +  CLOUDY    19   5  53 N9        30.29R WCI   9
LAFAYETTE      CLOUDY    17   7  64 NW14G21   30.30S WCI   3
TERRE HAUTE    CLOUDY    18   7  62 NW7       30.32R WCI   9

$$

INZ030>032-037>040-046>048-054>057-064-065-050500-
CENTRAL INDIANA

CITY           SKY/WX    TMP DP  RH WIND       PRES   REMARKS
CP ATTERBURY + CLOUDY    21  14  73 NW13      30.27R WCI   9
FRANKFORT +    CLOUDY    18  11  71 NW10      30.29R WCI   7
GREENWOOD *+   MOCLDY    21  10  63 NW12      30.27R WCI   9
INDIANAPOLIS   CLOUDY    19  10  68 NW12      30.27R WCI   7
-EAGLE CREEK   MOCLDY    19  10  68 N9        30.28R WCI   8
KOKOMO *+        N/A    N/A N/A N/A MISG        N/A
MARION +       CLOUDY    19   8  63 N7        30.27S WCI   9
MT COMFORT *+  CLOUDY    19   1  45 N14       30.26R WCI   6
SHELBYVILLE    CLOUDY    23  12  62 N15       30.25R WCI  10
ZIONSVILLE +   CLOUDY    19  10  69 N9        30.27S WCI   8

$$

INZ033-034-041-042-049-050-058-059-050500-
EAST CENTRAL INDIANA

CITY           SKY/WX    TMP DP  RH WIND       PRES   REMARKS
MUNCIE         CLOUDY    19   9  65 N14       30.26R WCI   6

$$

INZ060-061-067>069-081>083-085>088-050500-
SOUTHWEST INDIANA

CITY           SKY/WX    TMP DP  RH WIND       PRES   REMARKS
EVANSVILLE     LGT SNOW  20  14  77 N3        30.31F
HUNTINGBURG *+   N/A     18  14  86 N12       30.29R WCI   5
WASHINGTON +   CLOUDY    20   8  57 N12       30.30R WCI   8

$$

INZ062-063-066-070>080-084-089>092-050500-
SOUTH CENTRAL AND SOUTHEAST INDIANA

CITY           SKY/WX    TMP DP  RH WIND       PRES   REMARKS
BEDFORD +      CLOUDY    21  12  68 NW7       30.27R WCI  13
BLOOMINGTON    CLOUDY    20  10  65 N9        30.27R WCI   9
NORTH VERNON + CLOUDY    23  18  80 NW8       30.25R WCI  14
SEYMOUR +      CLOUDY    23  16  74 N10       30.26R WCI  12

$$



USA.gov is the U.S. government's official web portal to all federal, state and local government web resources and services.